When you browse on this site, cookies collect data to enhance your experience and personalize the content and advertising you see.
Visit our Privacy Policy to learn more. By continuing to use the site, you agree to this use of cookies and data.

Hourly Weather Lugi

Today, 12 July, Sunday

Time Temperature Precipitation Wind Pressure Humidity
00:00 +15°C° 0 mm 4 mps 750 mmHg 79%
01:00 +15°C° 0 mm 4 mps 750 mmHg 77%
02:00 +14°C° 0 mm 4 mps 750 mmHg 76%
03:00 +14°C° 0 mm 4 mps 750 mmHg 77%
04:00 +14°C° 0 mm 5 mps 750 mmHg 78%
05:00 +13°C° 0 mm 5 mps 750 mmHg 79%
06:00 +13°C° 0.2 mm 5 mps 751 mmHg 82%
07:00 +12°C° 0.2 mm 5 mps 751 mmHg 86%
08:00 +10°C° 0.2 mm 5 mps 751 mmHg 90%
09:00 +10°C° 1.6 mm 5 mps 751 mmHg 92%
10:00 +10°C° 1.6 mm 5 mps 751 mmHg 94%
11:00 +10°C° 1.6 mm 4 mps 751 mmHg 96%
12:00 +10°C° 1.5 mm 4 mps 752 mmHg 96%
13:00 +10°C° 1.5 mm 4 mps 752 mmHg 95%
14:00 +11°C° 1.5 mm 3 mps 752 mmHg 95%
15:00 +11°C° 0.4 mm 3 mps 752 mmHg 93%
16:00 +12°C° 0.4 mm 3 mps 752 mmHg 92%
17:00 +14°C° 0.4 mm 2 mps 752 mmHg 90%
18:00 +14°C° 0 mm 2 mps 752 mmHg 90%
19:00 +13°C° 0 mm 1 mps 752 mmHg 91%
20:00 +13°C° 0 mm 1 mps 752 mmHg 91%
21:00 +12°C° 0 mm 1 mps 751 mmHg 92%
22:00 +12°C° 0 mm 2 mps 751 mmHg 93%
23:00 +10°C° 0 mm 2 mps 751 mmHg 94%

Tomorrow, 13 July, Monday

Time Temperature Precipitation Wind Pressure Humidity
00:00 +10°C° 0 mm 2 mps 751 mmHg 95%
01:00 +10°C° 0 mm 2 mps 751 mmHg 95%
02:00 +10°C° 0 mm 3 mps 751 mmHg 96%
03:00 +9°C° 0 mm 3 mps 751 mmHg 96%
04:00 +9°C° 0 mm 3 mps 751 mmHg 96%
05:00 +9°C° 0 mm 3 mps 751 mmHg 96%
06:00 +11°C° 0 mm 4 mps 751 mmHg 90%
07:00 +12°C° 0 mm 4 mps 751 mmHg 85%
08:00 +13°C° 0 mm 4 mps 751 mmHg 79%
09:00 +15°C° 0 mm 4 mps 751 mmHg 73%
10:00 +17°C° 0 mm 4 mps 751 mmHg 67%
11:00 +18°C° 0 mm 4 mps 750 mmHg 60%
12:00 +19°C° 0 mm 4 mps 750 mmHg 59%
13:00 +19°C° 0 mm 4 mps 750 mmHg 57%
14:00 +20°C° 0 mm 4 mps 750 mmHg 56%
15:00 +20°C° 0.1 mm 4 mps 750 mmHg 59%
16:00 +19°C° 0.1 mm 4 mps 749 mmHg 61%
17:00 +19°C° 0.1 mm 4 mps 749 mmHg 64%
18:00 +18°C° 0 mm 3 mps 749 mmHg 71%
19:00 +17°C° 0 mm 2 mps 749 mmHg 78%
20:00 +15°C° 0 mm 2 mps 749 mmHg 85%
21:00 +14°C° 0 mm 2 mps 749 mmHg 88%
22:00 +13°C° 0 mm 2 mps 749 mmHg 91%
23:00 +12°C° 0 mm 2 mps 749 mmHg 94%

Day after tomorrow, 14 July, Tuesday

Time Temperature Precipitation Wind Pressure Humidity
00:00 +12°C° 0 mm 2 mps 749 mmHg 94%
01:00 +12°C° 0 mm 2 mps 749 mmHg 95%
02:00 +10°C° 0 mm 2 mps 749 mmHg 95%
03:00 +10°C° 0 mm 2 mps 749 mmHg 95%
04:00 +10°C° 0 mm 2 mps 749 mmHg 96%
05:00 +10°C° 0 mm 2 mps 749 mmHg 96%
06:00 +13°C° 0 mm 2 mps 749 mmHg 91%
07:00 +15°C° 0 mm 2 mps 749 mmHg 85%
08:00 +16°C° 0 mm 3 mps 749 mmHg 80%
09:00 +18°C° 0.1 mm 3 mps 749 mmHg 75%
10:00 +19°C° 0.1 mm 3 mps 749 mmHg 70%
11:00 +20°C° 0.1 mm 3 mps 749 mmHg 65%
12:00 +20°C° 0.3 mm 3 mps 749 mmHg 68%
13:00 +20°C° 0.3 mm 3 mps 748 mmHg 71%
14:00 +20°C° 0.3 mm 3 mps 748 mmHg 74%
15:00 +20°C° 0.2 mm 3 mps 748 mmHg 75%
16:00 +20°C° 0.2 mm 3 mps 748 mmHg 77%
17:00 +19°C° 0.2 mm 3 mps 748 mmHg 78%
18:00 +18°C° 0 mm 3 mps 748 mmHg 81%
19:00 +18°C° 0 mm 2 mps 748 mmHg 84%
20:00 +17°C° 0 mm 2 mps 748 mmHg 88%
21:00 +16°C° 0 mm 2 mps 748 mmHg 89%
22:00 +15°C° 0 mm 2 mps 748 mmHg 91%
23:00 +14°C° 0 mm 2 mps 748 mmHg 93%

15 July, Wednesday

Time Temperature Precipitation Wind Pressure Humidity
00:00 +13°C° 0 mm 2 mps 748 mmHg 94%
01:00 +13°C° 0 mm 2 mps 748 mmHg 94%
02:00 +12°C° 0 mm 2 mps 748 mmHg 95%
03:00 +12°C° 0 mm 2 mps 748 mmHg 94%
04:00 +12°C° 0 mm 2 mps 748 mmHg 94%
05:00 +12°C° 0 mm 2 mps 748 mmHg 93%
06:00 +14°C° 0 mm 2 mps 748 mmHg 87%
07:00 +16°C° 0 mm 2 mps 748 mmHg 80%
08:00 +18°C° 0 mm 2 mps 748 mmHg 73%
09:00 +19°C° 0 mm 2 mps 748 mmHg 66%
10:00 +21°C° 0 mm 2 mps 748 mmHg 59%
11:00 +23°C° 0 mm 2 mps 748 mmHg 53%
12:00 +23°C° 0 mm 2 mps 748 mmHg 53%
13:00 +24°C° 0 mm 2 mps 748 mmHg 53%
14:00 +24°C° 0 mm 2 mps 748 mmHg 53%
15:00 +24°C° 0 mm 2 mps 748 mmHg 55%
16:00 +24°C° 0 mm 2 mps 748 mmHg 57%
17:00 +24°C° 0 mm 2 mps 747 mmHg 59%
18:00 +22°C° 0.1 mm 1 mps 747 mmHg 67%
19:00 +20°C° 0.1 mm 1 mps 747 mmHg 75%
20:00 +18°C° 0.1 mm 1 mps 747 mmHg 83%
21:00 +16°C° 0 mm 1 mps 747 mmHg 84%
22:00 +15°C° 0 mm 0 mps 747 mmHg 86%
23:00 +14°C° 0 mm 0 mps 747 mmHg 88%

16 July, Thursday

Time Temperature Precipitation Wind Pressure Humidity
00:00 +13°C° 0 mm 0 mps 747 mmHg 88%
01:00 +13°C° 0 mm 0 mps 747 mmHg 89%
02:00 +13°C° 0 mm 0 mps 747 mmHg 89%
03:00 +13°C° 0 mm 0 mps 747 mmHg 89%
04:00 +13°C° 0 mm 0 mps 746 mmHg 89%
05:00 +13°C° 0 mm 0 mps 746 mmHg 89%
06:00 +15°C° 0 mm 1 mps 746 mmHg 85%
07:00 +18°C° 0 mm 1 mps 746 mmHg 80%
08:00 +20°C° 0 mm 1 mps 746 mmHg 76%
09:00 +21°C° 0 mm 1 mps 746 mmHg 71%
10:00 +23°C° 0 mm 1 mps 746 mmHg 66%
11:00 +24°C° 0 mm 2 mps 745 mmHg 60%
12:00 +24°C° 0.2 mm 2 mps 745 mmHg 60%
13:00 +25°C° 0.2 mm 2 mps 745 mmHg 59%
14:00 +25°C° 0.2 mm 2 mps 745 mmHg 59%
15:00 +25°C° 0.5 mm 2 mps 744 mmHg 63%
16:00 +25°C° 0.5 mm 1 mps 744 mmHg 67%
17:00 +24°C° 0.5 mm 1 mps 744 mmHg 72%
18:00 +23°C° 0.9 mm 1 mps 744 mmHg 77%
19:00 +21°C° 0.9 mm 1 mps 743 mmHg 82%
20:00 +19°C° 0.9 mm 1 mps 743 mmHg 87%
21:00 +18°C° 0.6 mm 2 mps 743 mmHg 90%
22:00 +17°C° 0.6 mm 2 mps 743 mmHg 92%
23:00 +16°C° 0.6 mm 2 mps 743 mmHg 95%

17 July, Friday

Time Temperature Precipitation Wind Pressure Humidity
00:00 +16°C° 0.4 mm 2 mps 743 mmHg 96%
01:00 +16°C° 0.4 mm 1 mps 743 mmHg 97%
02:00 +16°C° 0.4 mm 1 mps 743 mmHg 98%
03:00 +16°C° 1 mm 1 mps 743 mmHg 98%
04:00 +16°C° 1 mm 1 mps 743 mmHg 98%
05:00 +16°C° 1 mm 1 mps 743 mmHg 98%
06:00 +16°C° 1.5 mm 1 mps 743 mmHg 98%
07:00 +16°C° 1.5 mm 1 mps 743 mmHg 98%
08:00 +16°C° 1.5 mm 2 mps 743 mmHg 98%
09:00 +16°C° 1 mm 2 mps 743 mmHg 97%
10:00 +16°C° 1 mm 2 mps 743 mmHg 96%
11:00 +16°C° 1 mm 2 mps 743 mmHg 95%
12:00 +16°C° 0.4 mm 2 mps 743 mmHg 95%
13:00 +16°C° 0.4 mm 1 mps 743 mmHg 94%
14:00 +16°C° 0.4 mm 0 mps 743 mmHg 93%
15:00 +18°C° 0.6 mm 1 mps 743 mmHg 94%
16:00 +18°C° 0.6 mm 1 mps 743 mmHg 94%
17:00 +16°C° 0.6 mm 1 mps 743 mmHg 95%
18:00 +16°C° 1.9 mm 1 mps 743 mmHg 96%
19:00 +15°C° 1.9 mm 2 mps 743 mmHg 97%
20:00 +15°C° 1.9 mm 2 mps 743 mmHg 98%
21:00 +15°C° 2.7 mm 2 mps 743 mmHg 98%
22:00 +15°C° 2.7 mm 2 mps 743 mmHg 98%
23:00 +14°C° 2.7 mm 3 mps 743 mmHg 98%
Show more